Weather History for Sanford, ME

Change the Weather History Date:

Wednesday, November 14, 2012

  Actual Average Record
Temperature  
Mean Temperature 35 °F -  
Max Temperature 44 °F 45 °F 64 °F (2011)
Min Temperature 26 °F 26 °F 10 °F (1996)
Degree Days  
Heating Degree Days 30    
Moisture  
Dew Point 22 °F    
Average Humidity 60    
Maximum Humidity 86    
Minimum Humidity 34    
Precipitation  
Precipitation 0.00 in - - ()
Sea Level Pressure  
Sea Level Pressure 30.50 in    
Wind  
Wind Speed 9 mph (North)    
Max Wind Speed 17 mph    
Max Gust Speed 23 mph    
Visibility 10 miles    
Events      
Averages and records for this station are not official NWS values.
T = Trace of Precipitation, MM = Missing Value Source: NWS Daily Summary

Daily Weather History Graph

Daily Weather History Graph

Search for Another Location

Airport:

Trip Planner

Search our weather history database for the weather conditions in past years. The results will help you decide how hot, cold, wet, or windy it might be!

Date:

Astronomy

Nov. 14, 2012 Rise Set
Actual Time 6:35 AM EST 4:18 PM EST
Civil Twilight 6:04 AM EST 4:49 PM EST
Nautical Twilight 5:30 AM EST 5:23 PM EST
Astronomical Twilight 4:56 AM EST 5:57 PM EST
Moon 7:22 AM EST (11/14) 5:02 PM EST (11/14)
Length of Visible Light 10h 44m
Length of Day
9h 43m
New Moon, 1% of the Moon is Illuminated
Nov 14
New Moon
Nov 20
First Quarter
Nov 28
Full
Dec 6
Last Quarter
Dec 13
New

Hourly Weather History & Observations

Time (EST) Temp. Windchill Dew Point Humidity Pressure Visibility Wind Dir Wind Speed Gust Speed Precip Events Conditions
12:15 AM 37.4 °F 29.3 °F 23.0 °F 56% 30.42 in 10.0 mi NNE 12.7 mph - N/A   Overcast
12:35 AM 37.4 °F 28.9 °F 21.2 °F 52% 30.43 in 10.0 mi NNE 13.8 mph - N/A   Overcast
12:55 AM 37.4 °F 28.9 °F 21.2 °F 52% 30.43 in 10.0 mi NNE 13.8 mph 18.4 mph N/A   Overcast
1:15 AM 35.6 °F 28.0 °F 21.2 °F 56% 30.44 in 10.0 mi NNE 10.4 mph - N/A   Scattered Clouds
1:35 AM 35.6 °F 29.2 °F 21.2 °F 56% 30.44 in 10.0 mi North 8.1 mph - N/A   Clear
1:55 AM 33.8 °F 27.7 °F 21.2 °F 60% 30.45 in 10.0 mi NNE 6.9 mph - N/A   Clear
2:15 AM 33.8 °F 27.7 °F 21.2 °F 60% 30.45 in 10.0 mi North 6.9 mph - N/A   Clear
2:35 AM 33.8 °F 27.7 °F 21.2 °F 60% 30.45 in 10.0 mi North 6.9 mph - N/A   Clear
2:55 AM 33.8 °F 27.7 °F 21.2 °F 60% 30.45 in 10.0 mi North 6.9 mph - N/A   Clear
3:15 AM 32.0 °F 25.6 °F 21.2 °F 64% 30.46 in 10.0 mi North 6.9 mph - N/A   Clear
3:35 AM 32.0 °F 27.5 °F 21.2 °F 64% 30.46 in 10.0 mi North 4.6 mph - N/A   Clear
3:55 AM 30.2 °F 24.3 °F 19.4 °F 64% 30.47 in 10.0 mi North 5.8 mph - N/A   Clear
4:15 AM 30.2 °F 25.4 °F 21.2 °F 69% 30.47 in 10.0 mi North 4.6 mph - N/A   Clear
4:35 AM 30.2 °F 24.3 °F 24.8 °F 80% 30.48 in 10.0 mi North 5.8 mph - N/A   Clear
4:55 AM 30.2 °F 23.4 °F 26.6 °F 86% 30.48 in 10.0 mi North 6.9 mph - N/A   Clear
5:15 AM 30.2 °F 24.3 °F 26.6 °F 86% 30.49 in 10.0 mi North 5.8 mph - N/A   Clear
5:35 AM 30.2 °F 22.6 °F 24.8 °F 80% 30.49 in 10.0 mi NNW 8.1 mph - N/A   Clear
5:55 AM 30.2 °F 22.6 °F 21.2 °F 69% 30.50 in 10.0 mi North 8.1 mph - N/A   Clear
6:15 AM 30.2 °F 23.4 °F 17.6 °F 60% 30.51 in 10.0 mi North 6.9 mph - N/A   Clear
6:35 AM 30.2 °F 24.3 °F 19.4 °F 64% 30.51 in 10.0 mi NNW 5.8 mph - N/A   Clear
6:55 AM 30.2 °F 26.7 °F 24.8 °F 80% 30.53 in 10.0 mi NNW 3.5 mph - N/A   Clear
7:15 AM 30.2 °F 24.3 °F 24.8 °F 80% 30.53 in 10.0 mi NNW 5.8 mph - N/A   Clear
7:35 AM 32.0 °F 24.8 °F 23.0 °F 69% 30.53 in 10.0 mi NNW 8.1 mph - N/A   Clear
8:15 AM 35.6 °F 28.6 °F 19.4 °F 52% 30.53 in 10.0 mi North 9.2 mph - N/A   Clear
8:35 AM 37.4 °F 29.3 °F 26.6 °F 65% 30.54 in 10.0 mi North 12.7 mph - N/A   Clear
8:55 AM 37.4 °F 28.5 °F 24.8 °F 60% 30.54 in 10.0 mi North 15.0 mph 18.4 mph N/A   Clear
9:15 AM 39.2 °F 31.6 °F 21.2 °F 49% 30.54 in 10.0 mi NNE 12.7 mph - N/A   Clear
9:35 AM 39.2 °F 30.2 °F 21.2 °F 49% 30.55 in 10.0 mi North 17.3 mph 23.0 mph N/A   Clear
9:55 AM 39.2 °F 30.5 °F 24.8 °F 56% 30.54 in 10.0 mi NNE 16.1 mph 21.9 mph N/A   Clear
10:15 AM 41.0 °F 33.9 °F 24.8 °F 53% 30.54 in 10.0 mi North 12.7 mph - N/A   Clear
10:35 AM 41.0 °F 32.8 °F 26.6 °F 57% 30.53 in 10.0 mi North 16.1 mph - N/A   Clear
10:55 AM 42.8 °F 36.2 °F 26.6 °F 53% 30.53 in 10.0 mi NE 12.7 mph - N/A   Clear
11:15 AM 42.8 °F 35.8 °F 24.8 °F 49% 30.52 in 10.0 mi NNE 13.8 mph 17.3 mph N/A   Clear
11:35 AM 42.8 °F 38.0 °F 23.0 °F 46% 30.51 in 10.0 mi NNE 8.1 mph - N/A   Clear
12:15 PM 42.8 °F 38.0 °F 19.4 °F 39% 30.50 in 10.0 mi NNE 8.1 mph - N/A   Clear
12:35 PM 44.6 °F 38.8 °F 19.4 °F 37% 30.49 in 10.0 mi NNE 11.5 mph 17.3 mph N/A   Clear
12:55 PM 44.6 °F 38.8 °F 21.2 °F 39% 30.50 in 10.0 mi North 11.5 mph - N/A   Clear
1:15 PM 44.6 °F 38.4 °F 21.2 °F 39% 30.49 in 10.0 mi North 12.7 mph - N/A   Clear
1:35 PM 44.6 °F 38.4 °F 21.2 °F 39% 30.48 in 10.0 mi North 12.7 mph - N/A   Clear
1:55 PM 44.6 °F 38.8 °F 19.4 °F 37% 30.48 in 10.0 mi NNE 11.5 mph - N/A   Clear
2:15 PM 44.6 °F 38.8 °F 21.2 °F 39% 30.48 in 10.0 mi NNE 11.5 mph - N/A   Clear
2:36 PM 44.6 °F 40.7 °F 19.4 °F 37% 30.48 in 10.0 mi NNE 6.9 mph - N/A   Clear
2:55 PM 44.6 °F 38.8 °F 17.6 °F 34% 30.48 in 10.0 mi NNE 11.5 mph - N/A   Clear
3:15 PM 44.6 °F 39.7 °F 19.4 °F 37% 30.48 in 10.0 mi North 9.2 mph - N/A   Clear
3:35 PM 42.8 °F 36.6 °F 17.6 °F 36% 30.48 in 10.0 mi NNE 11.5 mph - N/A   Clear
3:55 PM 42.8 °F 36.6 °F 19.4 °F 39% 30.48 in 10.0 mi NNE 11.5 mph - N/A   Clear
4:15 PM 39.2 °F 33.6 °F 19.4 °F 45% 30.48 in 10.0 mi NNE 8.1 mph - N/A   Clear
4:35 PM 37.4 °F 32.1 °F 19.4 °F 48% 30.48 in 10.0 mi NNE 6.9 mph - N/A   Clear
4:55 PM 37.4 °F 33.8 °F 19.4 °F 48% 30.49 in 10.0 mi North 4.6 mph - N/A   Clear
5:15 PM 35.6 °F 32.8 °F 17.6 °F 48% 30.50 in 10.0 mi NNW 3.5 mph - N/A   Clear
5:35 PM 32.0 °F 28.7 °F 21.2 °F 64% 30.50 in 10.0 mi North 3.5 mph - N/A   Clear
5:55 PM 28.4 °F 24.6 °F 24.8 °F 86% 30.50 in 10.0 mi NNW 3.5 mph - N/A   Clear
6:15 PM 28.4 °F 23.3 °F 23.0 °F 80% 30.50 in 10.0 mi North 4.6 mph - N/A   Clear
6:35 PM 28.4 °F - 21.2 °F 74% 30.51 in 10.0 mi Calm Calm - N/A   Clear
6:55 PM 26.6 °F 20.0 °F 19.4 °F 74% 30.51 in 10.0 mi North 5.8 mph - N/A   Clear
7:15 PM 33.8 °F 27.0 °F 21.2 °F 60% 30.52 in 10.0 mi North 8.1 mph - N/A   Clear
7:35 PM 33.8 °F 27.7 °F 21.2 °F 60% 30.52 in 10.0 mi North 6.9 mph - N/A   Clear
7:55 PM 33.8 °F 27.7 °F 23.0 °F 65% 30.52 in 10.0 mi North 6.9 mph - N/A   Clear
8:15 PM 33.8 °F 27.0 °F 24.8 °F 70% 30.52 in 10.0 mi North 8.1 mph - N/A   Clear
8:35 PM 33.8 °F 27.0 °F 26.6 °F 75% 30.51 in 10.0 mi North 8.1 mph - N/A   Clear
8:55 PM 32.0 °F 25.6 °F 26.6 °F 80% 30.51 in 10.0 mi North 6.9 mph - N/A   Clear
9:15 PM 33.8 °F 27.0 °F 24.8 °F 70% 30.51 in 10.0 mi North 8.1 mph - N/A   Clear
9:35 PM 33.8 °F 26.4 °F 23.0 °F 65% 30.51 in 10.0 mi North 9.2 mph - N/A   Clear
9:55 PM 33.8 °F 27.0 °F 21.2 °F 60% 30.51 in 10.0 mi North 8.1 mph - N/A   Clear
10:15 PM 32.0 °F 24.8 °F 19.4 °F 60% 30.51 in 10.0 mi North 8.1 mph - N/A   Clear
10:35 PM 30.2 °F 21.9 °F 19.4 °F 64% 30.50 in 10.0 mi North 9.2 mph - N/A   Clear
10:55 PM 30.2 °F 22.6 °F 24.8 °F 80% 30.51 in 10.0 mi North 8.1 mph - N/A   Clear
11:15 PM 30.2 °F 22.6 °F 26.6 °F 86% 30.50 in 10.0 mi North 8.1 mph - N/A   Clear
11:35 PM 30.2 °F 22.6 °F 24.8 °F 80% 30.51 in 10.0 mi North 8.1 mph - N/A   Clear
11:55 PM 30.2 °F 21.9 °F 21.2 °F 69% 30.51 in 10.0 mi North 9.2 mph - N/A   Clear